QPF
0.00 0.00 0.00 0.00 0.00 0.00 0.00 0.00 0.00 0.00 0.00 0.00 0.00 0.00 0.00 0.00 0.00 0.00 0.00 0.00 0.00 0.00 0.00 0.00 0.00 0.00 0.00 0.00 0.00 0.00 0.00 0.00 0.00 0.00 0.00 0.00 0.00 0.00 0.00 0.00 0.00 0.00 0.00 0.00 0.00 0.00 0.00 0.00 0.00
0.00 0.00 0.00 0.00 0.00 0.00 0.00 0.00 0.00 0.00 0.00 0.00 0.00 0.00 0.00 0.00 0.00 0.00 0.00 0.00 0.00 0.00 0.00 0.00 0.00 0.00 0.00 0.00 0.00 0.00 0.00 0.00 0.00 0.00 0.00 0.00 0.00 0.00 0.00 0.00 0.00 0.00 0.00 0.00 0.00 0.00 0.00 0.00 0.00
0.00 0.00 0.00 0.00 0.00 0.00 0.00 0.00 0.00 0.00 0.00 0.00 0.00 0.00 0.00 0.00 0.00 0.00 0.00 0.00 0.00 0.00 0.00 0.00 0.00 0.00 0.00 0.00 0.00 0.00 0.00 0.00 0.00 0.00 0.00 0.00 0.00 0.00 0.00 0.00 0.00 0.00 0.00 0.00 0.00 0.00 0.00 0.00 0.00
0.00 0.00 0.00 0.00 0.00 0.00 0.00 0.00 0.00 0.00 0.00 0.00 0.00 0.00 0.00 0.00 0.00 0.00 0.00 0.00 0.00 0.00 0.00 0.00 0.00 0.00 0.00 0.00 0.00 0.00 0.00 0.00 0.00 0.00 0.00 0.00 0.00 0.00 0.00 0.00 0.00 0.00 0.00 0.00 0.00 0.00 0.00 0.00 0.00
0.00 0.00 0.00 0.00 0.00 0.00 0.00 0.00 0.00 0.00 0.00 0.00 0.00 0.00 0.00 0.00 0.00 0.00 0.00 0.00 0.00 0.00 0.00 0.00 0.00 0.00 0.00 0.00 0.00 0.00 0.00 0.00 0.00 0.00 0.00 0.00 0.00 0.00 0.00 0.00 0.00 0.00 0.00 0.00 0.00 0.00 0.00 0.00 0.00
0.00 0.00 0.00 0.00 0.00 0.00 0.00 0.00 0.00 0.00 0.00 0.00 0.00 0.00 0.00 0.00 0.00 0.00 0.00 0.00 0.00 0.00 0.00 0.00 0.00 0.00 0.00 0.00 0.00 0.00 0.00 0.00 0.00 0.00 0.00 0.00 0.00 0.00 0.00 0.00 0.00 0.00 0.00 0.00 0.00 0.00 0.00 0.00 0.00
0.00 0.00 0.00 0.00 0.00 0.00 0.00 0.00 0.00 0.00 0.00 0.00 0.00 0.00 0.00 0.00 0.00 0.00 0.00 0.00 0.00 0.00 0.00 0.00 0.00 0.00 0.00 0.00 0.00 0.00 0.00 0.00 0.00 0.00 0.00 0.00 0.00 0.00 0.00 0.00 0.00 0.00 0.00 0.00 0.00 0.00 0.00 0.00 0.00
0.00 0.00 0.00 0.00 0.00 0.00 0.00 0.00 0.00 0.00 0.00 0.00 0.00 0.00 0.00 0.00 0.00 0.00 0.00 0.00 0.00 0.00 0.00 0.00 0.00 0.00 0.00 0.00 0.00 0.00 0.00 0.00 0.00 0.00 0.00 0.00 0.00 0.00 0.00 0.00 0.00 0.00 0.00 0.00 0.00 0.00 0.00 0.00 0.00
0.00 0.00 0.00 0.00 0.00 0.00 0.00 0.00 0.00 0.00 0.00 0.00 0.00 0.00 0.00 0.00 0.00 0.00 0.00 0.00 0.00 0.00 0.00 0.00 0.00 0.00 0.00 0.00 0.00 0.00 0.00 0.00 0.00 0.00 0.00 0.00 0.00 0.00 0.00 0.00 0.00 0.00 0.00 0.00 0.00 0.00 0.00 0.00 0.00
0.00 0.00 0.00 0.00 0.00 0.00 0.00 0.00 0.00 0.00 0.00 0.00 0.00 0.00 0.00 0.00 0.00 0.00 0.00 0.00 0.00 0.00 0.00 0.00 0.00 0.00 0.00 0.00 0.00 0.00 0.00 0.00 0.00 0.00 0.00 0.00 0.00 0.00 0.00 0.00 0.00 0.00 0.00 0.00 0.00 0.00 0.00 0.00 0.00
0.00 0.00 0.00 0.00 0.00 0.00 0.00 0.00 0.00 0.00 0.00 0.00 0.00 0.00 0.00 0.00 0.00 0.00 0.00 0.00 0.00 0.00 0.00 0.00 0.00 0.00 0.00 0.00 0.00 0.00 0.00 0.00 0.00 0.00 0.00 0.00 0.00 0.00 0.00 0.00 0.00 0.00 0.00 0.00 0.00 0.00 0.00 0.00 0.00
0.00 0.00 0.00 0.00 0.00 0.00 0.00 0.00 0.00 0.00 0.00 0.00 0.00 0.00 0.00 0.00 0.00 0.00 0.00 0.00 0.00 0.00 0.00 0.00 0.00 0.00 0.00 0.00 0.00 0.00 0.00 0.00 0.00 0.00 0.00 0.00 0.00 0.00 0.00 0.00 0.00 0.00 0.00 0.00 0.00 0.00 0.00 0.00 0.00
0.00 0.00 0.00 0.00 0.00 0.00 0.00 0.00 0.00 0.00 0.00 0.00 0.00 0.00 0.00 0.00 0.00 0.00 0.00 0.00 0.00 0.00 0.00 0.00 0.00 0.00 0.00 0.00 0.00 0.00 0.00 0.00 0.00 0.00 0.00 0.00 0.00 0.00 0.00 0.00 0.00 0.00 0.00 0.00 0.00 0.00 0.00 0.00 0.00
0.00 0.00 0.00 0.00 0.00 0.00 0.00 0.00 0.00 0.00 0.00 0.00 0.00 0.00 0.00 0.00 0.00 0.00 0.00 0.00 0.00 0.00 0.00 0.00 0.00 0.00 0.00 0.00 0.00 0.00 0.00 0.00 0.00 0.00 0.00 0.00 0.01 0.00 0.00 0.00 0.00 0.00 0.00 0.00 0.00 0.00 0.00 0.00 0.00
0.00 0.00 0.00 0.00 0.00 0.00 0.00 0.00 0.00 0.00 0.00 0.00 0.00 0.00 0.00 0.00 0.00 0.00 0.00 0.00 0.00 0.00 0.00 0.00 0.00 0.00 0.00 0.00 0.00 0.00 0.00 0.00 0.00 0.00 0.00 0.00 0.02 0.02 0.01 0.02 0.00 0.00 0.00 0.00 0.00 0.00 0.00 0.00 0.00
0.00 0.00 0.00 0.00 0.00 0.00 0.00 0.00 0.00 0.00 0.00 0.00 0.00 0.00 0.00 0.00 0.00 0.00 0.00 0.00 0.00 0.00 0.00 0.00 0.00 0.00 0.00 0.00 0.00 0.00 0.00 0.00 0.00 0.00 0.00 0.00 0.04 0.07 0.12 0.03 0.00 0.00 0.00 0.00 0.00 0.00 0.00 0.00 0.00
0.00 0.00 0.00 0.00 0.00 0.00 0.00 0.00 0.00 0.00 0.00 0.00 0.00 0.00 0.00 0.00 0.00 0.00 0.00 0.00 0.00 0.00 0.00 0.00 0.00 0.00 0.00 0.00 0.00 0.00 0.00 0.00 0.00 0.00 0.00 0.00 0.06 0.14 0.09 0.05 0.01 0.01 0.00 0.00 0.00 0.00 0.02 0.04 0.05
0.00 0.00 0.00 0.00 0.00 0.00 0.00 0.00 0.00 0.00 0.00 0.00 0.00 0.00 0.00 0.00 0.00 0.00 0.00 0.00 0.00 0.00 0.00 0.00 0.00 0.00 0.00 0.00 0.00 0.00 0.00 0.00 0.00 0.00 0.00 0.00 0.02 0.16 0.10 0.00 0.00 0.00 0.00 0.00 0.00 0.02 0.04 0.02 0.11
0.00 0.00 0.00 0.00 0.00 0.00 0.00 0.00 0.00 0.00 0.00 0.00 0.00 0.00 0.00 0.00 0.00 0.00 0.00 0.00 0.00 0.00 0.00 0.00 0.00 0.00 0.00 0.00 0.00 0.00 0.00 0.00 0.00 0.00 0.00 0.00 0.09 0.12 0.05 0.00 0.00 0.00 0.00 0.01 0.05 0.02 0.01 0.03 0.10
0.00 0.00 0.00 0.00 0.00 0.00 0.00 0.00 0.00 0.00 0.00 0.00 0.00 0.00 0.00 0.00 0.00 0.00 0.00 0.00 0.00 0.00 0.00 0.00 0.00 0.00 0.00 0.00 0.00 0.00 0.00 0.00 0.00 0.01 0.09 0.17 0.06 0.01 0.01 0.00 0.00 0.00 0.00 0.02 0.02 0.00 0.00 0.00 0.02
0.00 0.00 0.00 0.00 0.00 0.00 0.00 0.00 0.00 0.00 0.00 0.00 0.00 0.00 0.00 0.00 0.00 0.00 0.00 0.00 0.00 0.00 0.00 0.00 0.00 0.00 0.00 0.00 0.00 0.00 0.00 0.00 0.00 0.06 0.15 0.11 0.01 0.00 0.00 0.00 0.00 0.00 0.00 0.00 0.00 0.00 0.00 0.00 0.00
0.00 0.00 0.00 0.00 0.00 0.00 0.00 0.00 0.00 0.00 0.00 0.00 0.00 0.00 0.00 0.00 0.00 0.00 0.00 0.00 0.00 0.00 0.00 0.00 0.00 0.00 0.00 0.00 0.00 0.00 0.00 0.00 0.00 0.00 0.05 0.10 0.01 0.00 0.00 0.00 0.00 0.00 0.00 0.00 0.00 0.00 0.00 0.00 0.00
0.00 0.00 0.00 0.00 0.00 0.00 0.00 0.00 0.00 0.00 0.00 0.00 0.00 0.00 0.00 0.00 0.00 0.00 0.00 0.00 0.00 0.00 0.00 0.00 0.00 0.00 0.00 0.00 0.00 0.00 0.00 0.00 0.00 0.00 0.00 0.01 0.00 0.00 0.00 0.00 0.00 0.00 0.00 0.00 0.00 0.00 0.00 0.00 0.00
0.00 0.00 0.00 0.00 0.00 0.00 0.00 0.00 0.00 0.00 0.00 0.00 0.00 0.00 0.00 0.00 0.00 0.00 0.00 0.00 0.00 0.00 0.00 0.00 0.00 0.00 0.00 0.00 0.00 0.00 0.00 0.00 0.02 0.00 0.00 0.00 0.00 0.00 0.00 0.00 0.00 0.00 0.00 0.00 0.00 0.00 0.00 0.00 0.00
0.00 0.00 0.00 0.00 0.00 0.00 0.00 0.00 0.00 0.00 0.00 0.00 0.00 0.00 0.00 0.00 0.00 0.00 0.00 0.00 0.00 0.00 0.00 0.00 0.00 0.00 0.00 0.00 0.00 0.00 0.00 0.00 0.00 0.00 0.00 0.00 0.00 0.00 0.00 0.00 0.00 0.00 0.00 0.00 0.00 0.00 0.00 0.00 0.00
0.00 0.00 0.00 0.00 0.00 0.00 0.00 0.00 0.00 0.00 0.00 0.00 0.00 0.00 0.00 0.00 0.00 0.00 0.00 0.00 0.00 0.00 0.00 0.00 0.00 0.00 0.00 0.00 0.00 0.00 0.00 0.00 0.00 0.00 0.00 0.00 0.00 0.00 0.00 0.00 0.00 0.00 0.00 0.00 0.00 0.02 0.00 0.00 0.00
0.00 0.00 0.00 0.00 0.00 0.00 0.00 0.00 0.00 0.00 0.00 0.00 0.00 0.00 0.00 0.00 0.00 0.00 0.00 0.00 0.00 0.00 0.00 0.00 0.00 0.00 0.00 0.00 0.00 0.00 0.00 0.00 0.00 0.00 0.00 0.00 0.00 0.00 0.00 0.00 0.00 0.00 0.00 0.02 0.09 0.09 0.01 0.00 0.01
0.00 0.00 0.00 0.00 0.00 0.00 0.00 0.00 0.00 0.00 0.00 0.00 0.00 0.00 0.00 0.00 0.00 0.00 0.00 0.00 0.00 0.00 0.00 0.00 0.00 0.00 0.00 0.00 0.00 0.00 0.00 0.00 0.00 0.00 0.00 0.00 0.00 0.00 0.00 0.00 0.00 0.00 0.00 0.00 0.04 0.02 0.02 0.00 0.00
0.00 0.00 0.00 0.00 0.00 0.00 0.00 0.00 0.00 0.00 0.00 0.00 0.00 0.00 0.00 0.00 0.00 0.00 0.00 0.00 0.00 0.00 0.00 0.00 0.00 0.00 0.00 0.00 0.00 0.00 0.00 0.00 0.00 0.00 0.00 0.00 0.00 0.00 0.00 0.00 0.00 0.00 0.00 0.00 0.00 0.00 0.01 0.00 0.01
0.00 0.00 0.00 0.00 0.00 0.00 0.00 0.00 0.00 0.00 0.00 0.00 0.00 0.00 0.00 0.00 0.00 0.00 0.00 0.00 0.00 0.00 0.00 0.00 0.00 0.00 0.00 0.00 0.00 0.00 0.00 0.00 0.00 0.00 0.00 0.00 0.00 0.00 0.00 0.00 0.00 0.00 0.00 0.00 0.00 0.03 0.00 0.00 0.00
MSLP
1010.42 1010.60 1010.79 1010.42 1011.62 1011.69 1010.60 1008.56 1006.80 1005.50 1004.39 1003.54 1003.10 1003.60 1004.14 1003.89 1004.63 1005.00 1003.88 1004.34 1004.82 1005.52 1006.26 1006.93 1007.16 1007.59 1007.92 1008.30 1008.40 1008.48 1008.57 1008.92 1009.27 1009.67 1009.98 1010.21 1010.56 1010.84 1011.19 1011.45 1011.60 1011.78 1011.99 1012.15 1012.27 1012.36 1012.53 1012.65 1012.66
1010.17 1010.73 1010.66 1010.68 1011.28 1011.45 1009.74 1007.60 1006.16 1004.69 1003.66 1003.22 1002.73 1003.13 1003.49 1003.58 1003.59 1003.70 1003.81 1004.45 1004.87 1005.29 1005.89 1006.61 1006.92 1007.20 1007.52 1007.87 1008.07 1008.33 1008.45 1008.77 1009.10 1009.51 1009.75 1010.03 1010.30 1010.62 1011.04 1011.40 1011.61 1011.73 1011.89 1012.12 1012.20 1012.39 1012.43 1012.64 1012.58
1009.89 1010.30 1010.88 1010.90 1010.71 1010.37 1008.63 1006.24 1005.36 1004.17 1003.27 1003.02 1002.32 1002.10 1002.57 1003.04 1003.16 1003.48 1003.58 1003.99 1004.82 1005.40 1005.60 1006.27 1006.57 1006.79 1007.14 1007.54 1007.85 1008.16 1008.44 1008.78 1008.99 1009.24 1009.47 1009.80 1010.11 1010.46 1010.83 1011.18 1011.58 1011.81 1011.93 1012.08 1012.23 1012.39 1012.44 1012.54 1012.58
1010.03 1010.56 1011.03 1010.77 1009.85 1009.01 1007.22 1005.82 1004.85 1004.13 1002.87 1002.26 1001.96 1002.39 1002.24 1002.09 1002.45 1002.70 1003.74 1004.04 1004.56 1005.26 1005.56 1006.00 1006.36 1006.62 1006.96 1007.19 1007.53 1007.95 1008.13 1008.49 1008.84 1008.98 1009.31 1009.65 1010.03 1010.43 1010.71 1011.01 1011.44 1011.71 1011.93 1012.10 1012.19 1012.30 1012.34 1012.45 1012.49
1010.07 1010.68 1011.00 1010.52 1009.10 1007.85 1006.60 1005.51 1004.84 1003.71 1002.96 1002.11 1001.88 1002.32 1002.44 1002.36 1002.27 1003.03 1003.20 1003.91 1004.25 1005.12 1005.55 1005.82 1006.10 1006.31 1006.52 1006.82 1007.26 1007.50 1007.81 1008.05 1008.40 1008.72 1008.96 1009.41 1009.85 1010.34 1010.66 1010.91 1011.21 1011.55 1011.88 1012.09 1012.15 1012.26 1012.30 1012.36 1012.41
1010.36 1010.85 1011.14 1010.00 1008.49 1007.08 1005.78 1005.00 1004.56 1003.68 1002.48 1002.07 1001.86 1002.36 1002.74 1002.63 1002.89 1002.99 1003.21 1003.57 1004.07 1004.57 1005.23 1005.46 1005.83 1006.16 1006.26 1006.48 1006.88 1007.27 1007.59 1007.87 1008.24 1008.70 1009.07 1009.36 1009.64 1010.05 1010.50 1010.83 1011.07 1011.36 1011.74 1012.03 1012.18 1012.20 1012.27 1012.34 1012.40
1010.36 1010.92 1010.50 1009.46 1008.24 1006.86 1005.02 1004.22 1003.86 1002.52 1002.49 1002.00 1001.86 1002.33 1002.94 1002.80 1002.63 1003.20 1003.60 1004.10 1004.68 1005.18 1005.41 1005.41 1005.45 1005.79 1006.20 1006.41 1006.59 1007.09 1007.39 1007.70 1008.19 1008.68 1009.05 1009.34 1009.62 1009.82 1010.15 1010.59 1010.86 1011.15 1011.45 1011.78 1011.99 1012.05 1012.20 1012.29 1012.37
1010.03 1010.50 1010.31 1008.96 1007.96 1006.79 1004.57 1003.71 1003.25 1002.73 1002.67 1002.39 1002.04 1002.33 1002.68 1002.33 1002.49 1003.21 1004.00 1004.48 1004.85 1004.90 1005.13 1005.66 1005.85 1005.85 1005.93 1006.18 1006.34 1006.84 1007.37 1007.84 1008.27 1008.50 1009.00 1009.44 1009.66 1009.76 1010.13 1010.40 1010.65 1010.94 1011.22 1011.49 1011.73 1011.85 1012.13 1012.22 1012.32
1009.82 1010.26 1010.11 1008.39 1007.58 1006.57 1004.78 1003.73 1002.66 1002.62 1002.90 1002.63 1002.75 1002.33 1001.86 1001.72 1002.55 1003.10 1003.78 1004.21 1004.57 1004.89 1005.22 1005.40 1005.37 1005.48 1005.70 1006.04 1006.22 1006.68 1007.09 1007.66 1008.02 1008.44 1008.86 1009.31 1009.79 1010.01 1010.17 1010.31 1010.55 1010.72 1010.94 1011.27 1011.52 1011.67 1011.92 1012.12 1012.20
1009.53 1009.49 1008.70 1007.04 1006.93 1006.14 1005.23 1004.80 1003.92 1003.18 1003.03 1003.21 1002.89 1002.55 1002.03 1002.20 1002.56 1003.19 1003.54 1003.80 1004.17 1004.22 1004.23 1004.49 1005.01 1004.82 1005.11 1005.45 1005.90 1006.27 1006.66 1007.16 1007.66 1008.11 1008.60 1009.11 1009.59 1010.04 1010.21 1010.18 1010.34 1010.47 1010.64 1011.00 1011.29 1011.52 1011.72 1011.93 1012.15
1008.63 1007.95 1007.46 1006.32 1006.45 1006.23 1005.74 1005.27 1004.86 1005.08 1004.41 1003.80 1002.88 1002.66 1002.61 1002.53 1002.74 1002.80 1002.88 1003.21 1002.99 1002.66 1003.52 1003.75 1003.93 1004.49 1004.76 1005.04 1005.55 1005.79 1006.19 1006.44 1006.93 1007.41 1008.12 1008.74 1009.25 1009.70 1010.05 1010.24 1010.25 1010.25 1010.38 1010.74 1010.91 1011.29 1011.53 1011.85 1011.99
1007.98 1007.14 1006.88 1006.06 1006.25 1006.24 1005.78 1005.49 1005.26 1004.93 1003.69 1003.35 1003.12 1002.79 1002.53 1002.54 1002.39 1002.75 1002.62 1002.37 1002.64 1002.51 1002.29 1002.59 1003.33 1003.86 1004.02 1004.44 1004.79 1005.18 1005.70 1005.98 1006.41 1006.89 1007.40 1008.21 1009.02 1009.48 1009.90 1010.16 1010.15 1010.06 1010.18 1010.37 1010.75 1011.13 1011.32 1011.69 1011.67
1007.18 1006.72 1006.59 1006.22 1005.75 1005.61 1005.65 1005.02 1004.26 1003.81 1003.88 1003.21 1002.65 1002.32 1002.35 1002.33 1002.12 1001.91 1001.56 1001.54 1001.51 1001.96 1001.78 1001.93 1002.45 1002.87 1003.28 1003.94 1004.32 1004.51 1004.74 1005.21 1005.70 1006.17 1006.85 1007.36 1008.25 1009.00 1009.44 1009.77 1009.75 1009.69 1009.94 1010.14 1010.54 1010.91 1011.18 1011.47 1011.44
1006.40 1006.27 1006.34 1006.19 1005.76 1005.41 1005.52 1004.49 1004.26 1002.72 1002.73 1002.97 1002.42 1002.16 1001.84 1001.80 1001.59 1001.36 1001.33 1001.31 1001.33 1000.87 1000.91 1001.45 1001.68 1001.98 1002.64 1002.91 1003.07 1003.36 1003.94 1004.55 1005.33 1005.81 1005.89 1006.67 1007.76 1008.54 1009.12 1009.40 1009.42 1009.56 1009.60 1009.74 1010.10 1010.48 1010.95 1011.07 1011.19
1006.52 1006.52 1006.18 1005.49 1005.63 1005.39 1004.97 1003.53 1002.47 1002.68 1002.49 1001.86 1001.74 1001.81 1001.36 1001.02 1000.88 1000.94 1000.35 1000.21 1000.09 999.84 999.87 1000.35 1000.67 1001.09 1001.73 1001.82 1002.39 1002.76 1003.20 1003.89 1004.48 1005.10 1005.56 1006.22 1006.81 1008.26 1008.36 1008.99 1009.14 1009.05 1009.23 1009.52 1009.92 1010.35 1010.66 1010.88 1010.91
1006.88 1006.77 1006.18 1004.51 1005.31 1005.14 1005.25 1000.82 1001.41 1001.79 1001.95 1001.40 1001.14 1000.69 1000.46 1000.10 999.92 999.71 999.74 999.71 999.43 999.47 999.46 999.36 999.62 1000.31 1000.95 1001.53 1001.64 1002.23 1002.68 1003.19 1003.95 1004.48 1004.93 1005.59 1006.31 1007.20 1007.93 1008.37 1008.57 1008.67 1008.99 1009.46 1009.86 1010.21 1010.54 1010.61 1010.76
1007.16 1006.35 1005.15 1005.16 1004.40 1004.60 1004.58 998.96 1001.65 1001.66 1001.68 1001.05 1000.75 1000.55 1000.18 999.98 999.60 999.38 999.24 999.04 998.66 998.40 998.48 998.79 999.32 999.45 999.88 1000.59 1001.12 1001.78 1002.36 1002.96 1003.56 1004.25 1004.59 1005.14 1005.90 1006.41 1007.21 1007.85 1008.29 1008.52 1008.94 1009.41 1009.76 1010.13 1010.27 1010.52 1010.71
1006.57 1005.93 1005.72 1005.30 1004.66 1004.40 1003.63 1000.45 1001.68 1001.57 1001.29 1000.64 1000.57 1000.12 999.82 999.49 999.11 998.75 998.53 998.19 998.17 997.96 998.06 998.30 998.76 998.85 999.50 1000.16 1001.09 1001.81 1002.29 1002.71 1003.24 1003.76 1004.20 1004.65 1005.40 1006.08 1006.92 1007.55 1007.95 1008.28 1008.89 1009.36 1009.57 1009.83 1010.03 1010.25 1010.35
1006.76 1006.53 1006.38 1005.36 1004.57 1004.22 1003.16 1001.61 1001.32 1001.64 1001.16 1000.38 1000.01 999.76 999.34 998.88 998.58 998.37 998.04 997.60 997.60 997.48 997.69 997.64 998.24 998.38 999.23 999.87 1000.92 1001.82 1001.77 1002.39 1003.21 1003.50 1003.91 1004.65 1005.33 1006.13 1006.84 1007.48 1007.78 1008.18 1008.67 1008.91 1009.26 1009.61 1009.94 1010.09 1010.28
1006.99 1006.85 1006.60 1006.16 1005.33 1004.85 1003.99 1001.85 1001.48 1001.17 1000.43 999.75 999.33 999.07 998.93 998.67 998.33 998.07 997.63 997.34 997.27 997.11 997.01 997.08 997.40 998.11 998.79 999.31 1000.09 1000.89 1001.58 1002.54 1002.79 1003.41 1003.85 1004.22 1004.43 1005.22 1006.11 1006.87 1007.53 1007.92 1008.44 1008.88 1009.12 1009.48 1009.81 1009.90 1009.95
1006.91 1006.86 1006.90 1006.74 1005.99 1004.74 1004.50 1001.82 1001.11 1000.04 999.62 999.02 998.29 998.25 998.16 998.20 998.05 997.60 997.27 996.91 996.71 996.73 996.84 996.87 997.20 997.57 998.27 999.14 1000.11 1000.89 1001.67 1002.47 1003.12 1003.67 1003.87 1004.46 1004.83 1005.17 1005.83 1006.55 1007.25 1007.73 1008.21 1008.61 1008.91 1009.17 1009.45 1009.71 1009.82
1006.70 1007.01 1006.94 1006.88 1006.90 1005.90 1005.01 1002.15 1000.72 999.25 998.91 998.50 997.98 997.75 997.69 997.48 997.17 997.16 996.86 996.63 996.27 995.98 996.60 997.13 997.46 997.69 998.36 998.95 999.62 1000.23 1000.90 1002.16 1002.84 1003.00 1003.55 1004.50 1004.99 1005.34 1005.91 1006.64 1007.13 1007.61 1008.02 1008.32 1008.49 1008.71 1008.97 1009.32 1009.68
1006.21 1006.73 1006.95 1007.19 1006.92 1006.41 1005.55 1004.70 996.44 998.75 997.86 997.26 997.06 997.12 996.60 996.39 996.59 996.56 996.39 995.92 995.65 996.07 996.45 996.82 997.24 997.97 998.31 998.85 999.54 1000.31 1001.25 1002.14 1002.78 1003.36 1004.16 1004.76 1005.27 1005.66 1006.19 1006.62 1007.19 1007.50 1007.63 1007.95 1008.24 1008.43 1008.72 1009.03 1009.35
1006.08 1006.46 1006.75 1007.13 1007.41 1006.64 1005.22 1004.93 996.61 998.04 996.91 996.75 996.40 996.32 996.15 996.14 996.20 996.02 995.78 995.68 996.00 996.24 996.67 997.18 997.60 998.21 998.53 999.16 999.77 1000.38 1001.39 1002.39 1003.14 1003.81 1004.40 1005.08 1005.58 1005.99 1006.34 1006.69 1006.80 1007.11 1007.47 1007.73 1007.87 1008.06 1008.40 1008.66 1008.86
1005.91 1006.55 1007.11 1007.80 1007.54 1005.05 1004.08 1003.79 997.55 997.29 996.23 996.44 996.27 996.09 995.95 995.82 995.93 995.88 996.24 996.44 996.52 996.68 997.02 997.56 998.26 998.76 998.95 999.61 1000.18 1000.82 1001.46 1002.19 1002.89 1003.62 1004.35 1005.11 1005.76 1006.22 1006.27 1006.40 1006.78 1006.99 1007.10 1007.33 1007.66 1007.91 1008.16 1008.30 1008.52
1005.46 1006.27 1006.29 1006.20 1006.16 1004.83 1004.04 1000.92 997.56 996.34 995.60 995.07 995.31 995.29 995.51 995.64 995.93 996.33 996.55 996.78 996.79 997.24 997.62 998.14 998.74 999.06 999.54 1000.17 1000.80 1001.26 1001.83 1002.42 1002.91 1003.45 1004.19 1004.89 1005.43 1005.80 1005.98 1006.24 1006.44 1006.59 1006.85 1007.16 1007.34 1007.57 1007.74 1007.87 1008.06
1005.43 1005.76 1005.82 1006.27 1005.78 1005.34 1002.64 999.55 997.47 995.73 994.80 995.21 994.95 995.14 995.03 995.28 996.00 996.48 996.81 997.08 997.28 997.87 998.39 998.78 999.22 999.68 1000.23 1000.86 1001.38 1001.90 1002.24 1002.64 1003.16 1003.73 1004.26 1004.97 1005.32 1005.56 1005.83 1006.07 1006.27 1006.51 1006.78 1006.93 1007.01 1007.21 1007.32 1007.44 1007.54
1005.18 1005.40 1005.98 1006.43 1006.07 1004.97 1002.05 999.74 996.98 995.48 994.44 994.84 994.87 995.16 995.17 995.73 996.37 996.79 997.28 997.58 997.97 998.34 998.78 999.13 999.59 1000.24 1000.91 1001.40 1001.83 1002.26 1002.66 1003.02 1003.50 1004.03 1004.67 1005.00 1005.34 1005.53 1005.82 1006.07 1006.26 1006.47 1006.55 1006.62 1006.75 1006.87 1007.01 1007.11 1007.16
1005.65 1005.65 1005.82 1005.78 1005.56 1004.39 1002.38 998.09 996.07 995.60 995.37 995.35 994.78 994.32 994.78 995.77 996.41 996.98 997.70 997.97 998.49 998.86 999.21 999.72 1000.12 1000.79 1001.40 1001.78 1002.24 1002.70 1003.15 1003.44 1003.85 1004.32 1004.78 1005.10 1005.27 1005.48 1005.84 1006.00 1006.19 1006.28 1006.38 1006.44 1006.62 1006.76 1006.66 1006.71 1006.84
1006.15 1005.85 1006.09 1006.08 1005.36 1004.17 1002.61 997.84 995.41 995.69 995.50 995.48 994.73 994.15 994.86 995.84 996.57 997.31 997.81 998.30 998.89 999.22 999.61 1000.05 1000.54 1001.07 1001.62 1002.03 1002.56 1002.99 1003.41 1003.75 1004.18 1004.56 1004.82 1004.99 1005.28 1005.61 1005.77 1005.91 1006.06 1006.16 1006.34 1006.38 1006.55 1006.57 1006.39 1006.59 1006.72
Thickness
5780 5780 5780 5781 5747 5737 5731 5754 5786 5790 5802 5822 5825 5811 5802 5812 5797 5774 5840 5839 5837 5833 5825 5816 5811 5805 5801 5796 5795 5793 5790 5784 5777 5771 5766 5761 5755 5750 5744 5740 5737 5733 5728 5724 5722 5721 5717 5715 5715
5780 5775 5774 5764 5736 5717 5730 5770 5777 5797 5813 5822 5825 5817 5810 5806 5829 5830 5835 5837 5835 5833 5827 5817 5811 5806 5803 5799 5796 5793 5789 5783 5776 5770 5766 5761 5756 5750 5743 5738 5734 5730 5725 5720 5718 5714 5712 5709 5709
5779 5775 5756 5747 5735 5728 5740 5782 5791 5806 5817 5817 5821 5830 5821 5816 5833 5831 5842 5841 5834 5829 5824 5817 5812 5809 5804 5799 5795 5790 5785 5778 5773 5769 5765 5760 5755 5749 5743 5738 5731 5726 5721 5716 5711 5708 5706 5703 5703
5767 5761 5753 5736 5740 5752 5767 5786 5796 5797 5813 5823 5825 5804 5830 5843 5838 5843 5837 5835 5832 5825 5819 5816 5811 5807 5804 5800 5794 5787 5783 5778 5771 5767 5762 5756 5749 5744 5739 5734 5728 5723 5718 5712 5707 5704 5702 5700 5699
5757 5746 5728 5731 5746 5764 5778 5785 5791 5795 5805 5815 5821 5804 5810 5833 5843 5837 5837 5831 5828 5820 5816 5812 5812 5809 5805 5799 5792 5786 5780 5776 5770 5764 5758 5750 5744 5738 5734 5729 5724 5719 5713 5708 5705 5701 5699 5696 5694
5736 5735 5715 5727 5747 5768 5783 5786 5786 5789 5805 5809 5812 5803 5805 5828 5826 5830 5832 5828 5826 5821 5815 5813 5811 5807 5805 5799 5792 5784 5777 5771 5764 5758 5751 5745 5741 5736 5731 5725 5720 5714 5708 5704 5699 5698 5695 5692 5690
5728 5718 5718 5731 5743 5754 5779 5790 5785 5797 5797 5802 5813 5792 5804 5814 5822 5821 5819 5816 5814 5814 5811 5811 5808 5805 5801 5798 5792 5783 5777 5771 5764 5756 5750 5744 5738 5734 5729 5721 5717 5711 5706 5700 5695 5694 5690 5688 5686
5729 5719 5716 5729 5737 5742 5779 5786 5792 5792 5789 5810 5814 5785 5787 5811 5820 5816 5809 5806 5806 5808 5808 5801 5797 5793 5796 5793 5792 5783 5774 5766 5758 5753 5746 5739 5733 5730 5723 5719 5714 5709 5703 5698 5693 5689 5685 5682 5680
5727 5697 5697 5727 5735 5745 5769 5772 5797 5802 5790 5797 5797 5797 5809 5817 5814 5807 5803 5801 5799 5803 5801 5799 5794 5790 5789 5785 5784 5780 5773 5764 5757 5749 5742 5735 5729 5723 5718 5715 5710 5706 5701 5695 5691 5686 5681 5677 5675
5706 5689 5710 5746 5748 5747 5757 5763 5774 5775 5777 5777 5785 5801 5810 5810 5804 5795 5795 5794 5792 5796 5799 5798 5792 5791 5790 5783 5780 5776 5770 5762 5754 5747 5740 5733 5726 5719 5714 5711 5707 5703 5699 5692 5688 5682 5678 5673 5670
5706 5705 5733 5747 5746 5744 5745 5747 5766 5751 5749 5770 5779 5789 5795 5797 5797 5799 5798 5794 5799 5804 5799 5799 5797 5790 5788 5782 5778 5773 5767 5762 5755 5747 5739 5732 5724 5717 5710 5706 5703 5700 5696 5690 5686 5679 5675 5670 5667
5697 5718 5729 5744 5741 5737 5738 5745 5738 5746 5764 5781 5784 5789 5791 5792 5796 5794 5795 5801 5797 5800 5804 5802 5795 5788 5788 5784 5778 5772 5765 5761 5755 5747 5739 5731 5722 5715 5708 5704 5700 5697 5693 5689 5683 5677 5671 5666 5664
5697 5715 5716 5725 5734 5735 5736 5735 5745 5749 5763 5778 5784 5788 5787 5786 5793 5799 5804 5807 5807 5801 5801 5800 5795 5789 5788 5782 5776 5771 5767 5761 5754 5747 5738 5732 5723 5713 5706 5701 5698 5695 5690 5686 5680 5674 5668 5663 5660
5705 5706 5705 5710 5717 5726 5718 5732 5737 5761 5775 5765 5775 5776 5783 5785 5791 5797 5799 5798 5799 5804 5802 5796 5793 5789 5786 5782 5779 5775 5769 5761 5751 5744 5741 5732 5720 5711 5703 5697 5695 5692 5688 5683 5677 5670 5662 5659 5655
5690 5678 5690 5703 5704 5703 5721 5718 5734 5757 5763 5767 5770 5769 5776 5783 5789 5790 5799 5799 5803 5805 5804 5797 5794 5791 5784 5782 5777 5773 5768 5760 5751 5744 5737 5729 5722 5707 5703 5695 5690 5689 5685 5679 5671 5664 5658 5654 5650
5669 5668 5663 5704 5698 5702 5701 5714 5748 5757 5751 5756 5763 5773 5778 5785 5791 5796 5797 5797 5801 5798 5798 5797 5795 5790 5783 5776 5775 5769 5764 5758 5749 5743 5736 5729 5719 5708 5699 5694 5689 5685 5680 5674 5666 5657 5651 5647 5643
5644 5648 5664 5679 5702 5695 5688 5727 5733 5746 5743 5748 5756 5759 5766 5774 5781 5788 5793 5796 5799 5802 5800 5794 5792 5788 5783 5777 5771 5764 5759 5753 5747 5739 5735 5728 5717 5710 5700 5692 5686 5681 5675 5667 5659 5651 5645 5638 5632
5639 5653 5659 5655 5676 5685 5684 5711 5722 5729 5732 5736 5739 5750 5758 5765 5776 5787 5791 5794 5794 5797 5795 5793 5788 5785 5779 5771 5762 5755 5752 5748 5743 5737 5733 5727 5715 5706 5696 5689 5684 5679 5670 5659 5652 5644 5638 5633 5627
5630 5631 5631 5653 5667 5672 5681 5695 5710 5712 5717 5729 5738 5745 5754 5764 5772 5779 5786 5791 5791 5792 5791 5790 5782 5781 5772 5765 5755 5746 5747 5742 5734 5733 5729 5720 5711 5700 5692 5684 5680 5673 5662 5655 5647 5640 5634 5629 5623
5614 5614 5619 5634 5652 5653 5661 5682 5694 5702 5715 5728 5735 5739 5748 5755 5764 5772 5779 5783 5785 5789 5788 5785 5781 5774 5769 5763 5754 5746 5741 5733 5732 5727 5723 5717 5710 5702 5691 5682 5673 5666 5657 5649 5642 5636 5629 5624 5620
5598 5602 5612 5614 5632 5652 5646 5667 5682 5707 5714 5729 5739 5744 5748 5748 5755 5766 5772 5779 5783 5780 5781 5779 5775 5772 5766 5758 5747 5739 5733 5728 5722 5717 5714 5707 5702 5695 5686 5677 5669 5662 5653 5645 5639 5633 5627 5621 5615
5579 5602 5612 5611 5610 5610 5642 5634 5675 5712 5715 5718 5732 5740 5742 5750 5759 5761 5770 5773 5775 5779 5776 5770 5766 5765 5758 5751 5743 5740 5735 5724 5717 5717 5710 5699 5694 5687 5679 5670 5663 5655 5649 5642 5638 5633 5627 5619 5611
5586 5595 5597 5601 5603 5608 5622 5610 5720 5705 5709 5726 5737 5737 5749 5757 5757 5761 5766 5772 5776 5774 5770 5767 5763 5756 5753 5748 5743 5735 5726 5718 5712 5706 5697 5690 5683 5678 5672 5665 5657 5651 5647 5641 5636 5632 5625 5618 5610
5585 5579 5588 5591 5588 5577 5626 5615 5699 5696 5715 5723 5731 5734 5744 5748 5754 5759 5765 5768 5766 5766 5762 5758 5754 5749 5747 5742 5736 5730 5721 5710 5703 5696 5688 5681 5675 5669 5664 5659 5654 5650 5645 5640 5636 5631 5623 5617 5612
5566 5556 5550 5551 5556 5602 5637 5624 5688 5705 5718 5719 5722 5731 5742 5750 5753 5756 5756 5754 5756 5756 5753 5749 5744 5739 5739 5734 5729 5723 5715 5707 5700 5693 5685 5676 5668 5663 5660 5657 5652 5648 5645 5640 5635 5627 5622 5618 5613
5550 5552 5548 5562 5575 5607 5634 5638 5677 5714 5725 5733 5736 5743 5743 5748 5749 5747 5747 5748 5749 5745 5742 5740 5735 5733 5730 5724 5718 5714 5708 5701 5696 5689 5680 5672 5667 5662 5659 5655 5652 5648 5644 5640 5634 5627 5623 5619 5615
5546 5544 5571 5566 5585 5590 5618 5658 5690 5718 5731 5728 5733 5740 5744 5746 5741 5742 5742 5742 5740 5735 5732 5730 5727 5724 5719 5714 5709 5704 5701 5696 5690 5683 5676 5669 5664 5660 5657 5654 5650 5646 5642 5639 5634 5630 5625 5621 5618
5544 5558 5547 5546 5564 5578 5616 5640 5667 5701 5722 5724 5729 5734 5739 5736 5735 5737 5735 5733 5730 5729 5725 5723 5721 5715 5709 5705 5702 5697 5692 5688 5683 5676 5668 5664 5660 5658 5654 5651 5646 5643 5642 5638 5635 5632 5627 5623 5621
5533 5537 5546 5560 5567 5578 5602 5638 5686 5703 5710 5710 5728 5741 5737 5733 5733 5732 5727 5726 5723 5721 5719 5715 5712 5707 5701 5698 5693 5688 5683 5680 5675 5669 5664 5660 5658 5655 5650 5648 5644 5643 5641 5638 5635 5631 5628 5627 5624
5525 5535 5537 5539 5571 5581 5597 5643 5700 5702 5703 5712 5731 5740 5735 5731 5729 5726 5722 5720 5717 5715 5713 5710 5705 5700 5696 5692 5687 5682 5677 5673 5667 5663 5660 5658 5654 5651 5648 5646 5644 5643 5640 5638 5634 5632 5631 5627 5624